Retour au catalogue

ARIANE 5 DEB

SYLDA

ActifHEO
NORAD 43177·DEBRIS·🇫🇷 France

Lancé Jan 25, 2018 depuis Guiana Space Centre

Loading…

Prochains Passages (prochaines 24 heures)

TLE

FraisSource: Space-Track

Époque: Sep 14, 2026, 20:05 UTC

1 43177U 18012D   26257.83722488  .00015457  00000-0  50319-2 0  9990
2 43177  20.8823 141.6875 6744689 164.1995 237.0656  2.96769748 69000

Suivez ARIANE 5 DEB en temps réel avec AllMySat

Download on the App Store